Regional Weather Roundup
Issued by NWS Northern Indiana

Home | Current Version | Previous Version | Graphics & Text | Print | Product List | Glossary On
Versions: 1 2 3 4 5 6 7 8 9 10 11 12 13 14 15 16 17 18 19 20 21 22 23 24 25 26 27 28 29 30 31 32 33 34 35 36 37 38 39 40 41 42 43 44 45 46 47 48 49 50
000
ASUS43 KIWX 210510
RWRIWX

KIWX WEATHER ROUNDUP
NATIONAL WEATHER SERVICE NORTHERN INDIANA
100 AM EDT SAT OCT 21 2017

NOTE: "FAIR" INDICATES FEW OR NO CLOUDS BELOW 12,000 FEET WITH NO
SIGNIFICANT WEATHER AND/OR OBSTRUCTIONS TO VISIBILITY.

* THESE STATIONS ARE NOT UNDER NWS QUALITY CONTROL. THEY ALSO MAY NOT
  REPORT WEATHER SUCH AS PRECIPITATION OR FOG.

INZ001>027-210600-
NORTHERN INDIANA

CITY           SKY/WX    TMP DP  RH WIND       PRES   REMARKS
GARY*          CLOUDY    65  46  50 S7        30.09S
VALPARAISO     CLOUDY    60  49  66 S5        30.11S
MICHIGAN CITY* PTCLDY    61  46  59 S10       30.10S
LAPORTE*       PTCLDY    58  49  70 S5        30.11F
KNOX*          CLOUDY    59  50  72 S7        30.12S
SOUTH BEND     CLOUDY    59  49  69 S5        30.12S
GOSHEN         PTCLDY    61  47  59 S8        30.13S
MONTICELLO*    CLOUDY    58  49  72 SE3       30.12S
LOGANSPORT*    PTCLDY    57  50  77 S7        30.14S
WARSAW*        CLOUDY    59  48  67 CALM      30.14S
AUBURN*        CLEAR     55  48  76 CALM      30.16S
FORT WAYNE     CLOUDY    55  48  77 S5        30.16S
HUNTINGTON*    CLOUDY    56  49  77 CALM      30.15S
PERU/GRISSOM   CLOUDY    57  49  74 S6        30.13S
MARION*        CLOUDY    52  46  82 CALM      30.16S

$$
INZ028>050-210600-
CENTRAL INDIANA

CITY           SKY/WX    TMP DP  RH WIND       PRES   REMARKS
LAFAYETTE      MOCLDY    57  50  77 CALM      30.12F
KOKOMO*        CLOUDY    55  49  80 SE5       30.15S
MUNCIE*        CLOUDY    62  50  64 S7        30.16F
INDIANAPOLIS   PTCLDY    58  48  69 SE6       30.16R

$$
MIZ043>046-050>051-056>058-064>065-071>073-077>080-210600-
SOUTHWEST LOWER MICHIGAN

CITY           SKY/WX    TMP DP  RH WIND       PRES   REMARKS
BATTLE CREEK   CLOUDY    60  50  69 S12       30.13R
BENTON HARBOR  CLOUDY    62  48  60 S7        30.10R
COLDWATER*     CLOUDY    58  50  74 S6        30.14S
HILLSDALE*     CLEAR     59  48  67 S7        30.16R
HOLLAND        PTCLDY    58  50  75 S7        30.09S
GRAND RAPIDS   CLOUDY    60  52  74 S9        30.09F
KALAMAZOO      CLOUDY    58  48  69 S6        30.12S
STURGIS*       CLOUDY    56  48  74 S5        30.13S
THREE RIVERS*  FAIR      57  50  77 S6        30.13S

$$
OHZ001>008-015>018-024>025-210600-
NORTHWEST OHIO

CITY           SKY/WX    TMP DP  RH WIND       PRES   REMARKS
WAUSEON*       FAIR      54  50  87 S7        30.16S
DEFIANCE       CLEAR     55  49  80 S3        30.16S
FINDLAY        CLEAR     56  44  64 SE6       30.17F
TOLEDO EXPRESS CLEAR     59  50  72 S7        30.16S
TOLEDO METCALF CLEAR     57  45  64 S8        30.18S
LIMA           CLEAR     55  50  83 S6        30.18S

$$
AND FOR LAKE MICHIGAN COASTAL AND OPEN LAKE BUOY OBSERVATIONS

STATION/POSITION TEMP    WIND        PRES    VSBY  WAVE
                 AIR SEA DIR/SP/G                  HT/PER
                 (F)     (DEG/KT/KT) (MB)    (MI)  (FT/S)
CALUMET HARBOR    66     180/  9/ 13 1017.5F
MICHIGAN CITY     64     170/ 11/ 14   N/A
BURNS HARBOR      65     190/ 12/ 16 1019.3R
SAINT JOSEPH      63     190/  3/  7 1019.3
SOUTH LAKE BUOY   64 61  170/ 16/ 17 1017.6          2/ 3
4 MI NW BRIDGMAN  63 59  200/  8/ 10 1019.0          1
MICHIGAN CITY     61 58  190/ 10/ 12   N/A           1/ 2

$$
&&




USA.gov is the U.S. government's official web portal to all federal, state and local government web resources and services.